Location: Recife
(8.0585°S, 34.8848°W)
Time: 19:59:46
(UTC-03:00)

S-56A Canister/Altair - Pass Details

Date: 17 April 2026
Orbit: 633 x 2484 km, 38.9° (Epoch: 16 May)

Event Time Altitude Azimuth Distance (km) Brightness Sun altitude
Rises 09:52:29 0° 342° (NNW) 6,132 12.3 61.5°
Reaches altitude 10° 09:59:34 10° 3° (N) 4,997 12.1 62.8°
Maximum altitude 10:06:22 15° 33° (NNE) 4,340 12.0 64.0°
Drops below altitude 10° 10:12:27 10° 62° (ENE) 4,408 11.9 65.0°
Sets 10:17:48 0° 84° (E) 5,033 11.9 65.9°
